Theta_e
309 308 308 308 308 308 308 308 307 308 308 307 304 304 303 305 307 309 311 305 311 310 312 308 308 310 310 311 316 320 327 329 327 326 325 325 325 324 325 324 325 321 324 329 342
309 310 309 308 307 307 307 307 308 307 306 306 303 303 303 307 311 312 310 309 312 310 305 308 311 309 308 311 313 319 320 327 327 327 327 327 326 326 326 326 326 325 324 328 337
309 309 310 310 309 307 307 307 307 308 306 303 303 303 304 311 313 317 313 311 309 304 308 307 311 309 310 310 311 317 321 324 324 322 323 323 323 323 325 326 326 325 323 323 325
308 309 309 309 309 309 308 307 307 306 304 302 304 304 305 314 319 315 309 307 306 309 312 313 311 309 310 311 310 311 312 313 315 316 318 320 320 321 322 323 324 323 324 323 325
305 306 307 307 308 308 308 308 307 304 301 304 304 304 311 315 317 312 309 308 309 311 313 313 309 308 307 307 308 309 310 310 310 310 311 312 313 314 315 316 317 318 321 324 323
306 304 306 306 308 308 307 308 306 303 301 306 306 307 313 311 311 312 310 310 311 312 311 311 309 309 308 309 309 308 309 309 310 310 310 312 313 314 316 317 317 317 318 320 322
310 307 306 308 305 309 309 306 303 303 302 307 306 312 313 304 311 310 310 310 310 311 310 311 311 310 308 308 308 309 308 307 309 310 311 312 312 313 315 316 316 317 317 319 322
307 306 305 307 306 306 305 302 303 302 302 308 308 313 310 312 315 311 310 309 309 310 310 311 310 309 309 308 307 307 305 304 307 308 309 311 313 314 314 314 316 315 316 317 317
306 306 306 305 303 304 303 305 308 306 307 309 312 312 316 314 310 309 308 308 309 310 310 311 309 308 308 307 306 305 307 308 308 308 308 310 309 310 311 311 312 312 312 313 313
306 306 305 303 302 305 307 312 313 312 313 313 313 313 312 314 310 309 309 309 308 309 309 309 305 306 304 306 309 310 309 308 308 309 310 309 310 310 311 311 311 311 311 312 313
306 306 305 303 303 306 310 311 305 307 314 311 317 314 316 315 311 309 309 310 310 307 307 306 306 306 307 306 308 309 310 309 309 310 309 309 311 311 310 310 310 310 311 311 311
306 306 305 303 304 308 310 310 311 310 310 309 310 313 314 313 311 308 310 309 309 308 307 306 307 307 308 308 309 309 310 310 311 312 312 311 312 312 310 309 309 310 310 310 309
303 303 304 304 306 310 310 311 311 309 308 309 310 311 310 311 311 308 309 309 308 308 308 307 307 307 307 309 311 311 311 311 313 312 311 311 311 310 309 309 309 309 308 308 308
300 302 305 305 310 309 310 310 311 309 311 315 311 311 310 308 308 309 309 309 308 307 307 307 306 308 307 310 312 313 311 312 311 312 313 311 313 310 309 308 308 307 306 306 306
303 304 306 307 308 309 311 310 310 311 315 314 309 309 307 308 309 310 309 308 307 307 306 307 307 307 309 310 312 311 311 310 311 313 313 312 308 310 309 309 307 306 306 307 312
305 306 307 311 309 311 311 310 311 313 315 312 310 310 309 309 309 309 309 308 308 307 307 306 307 308 309 312 311 310 309 309 310 307 311 311 309 311 308 308 307 308 314 314 314
307 310 307 307 309 311 311 309 314 316 313 311 310 309 309 310 310 310 309 309 308 307 308 308 309 308 312 312 307 305 306 307 310 311 311 308 309 309 309 309 311 316 316 314 312
309 313 309 308 311 312 309 310 317 314 311 311 310 309 311 311 310 310 309 308 311 309 307 309 309 310 310 309 308 307 305 306 311 313 310 310 312 310 308 315 317 316 314 313 312
312 314 314 314 314 311 307 312 313 310 309 309 310 312 312 311 310 309 309 311 311 310 310 309 312 310 310 310 309 308 307 306 310 311 311 310 310 310 310 317 316 314 313 311 311
312 313 314 313 312 310 308 315 314 313 311 309 312 312 311 311 311 309 309 312 312 311 308 309 312 310 310 309 308 308 308 311 304 308 313 313 313 312 310 310 315 314 312 312 312
310 311 313 310 308 308 310 313 314 311 311 310 310 310 310 312 311 310 310 311 312 311 310 310 309 311 310 310 308 307 309 312 308 314 315 316 313 309 313 315 314 313 312 312 313
305 311 312 310 309 305 310 311 311 311 311 309 309 310 311 311 311 312 311 310 311 311 311 311 310 313 312 310 308 308 309 309 308 312 312 313 313 310 313 313 313 312 313 313 311
304 306 310 309 304 305 306 310 310 311 311 310 310 309 309 310 312 312 311 310 309 309 311 311 310 314 310 308 308 310 311 310 310 312 314 316 313 311 313 313 314 313 314 313 312
304 305 301 300 301 305 306 308 311 311 311 309 309 308 308 309 309 310 311 310 308 308 311 312 312 314 314 311 308 312 313 311 310 316 313 314 313 312 312 313 314 314 315 317 314
299 303 302 301 301 304 305 307 310 311 308 307 308 309 308 308 308 308 308 307 307 309 309 308 310 311 313 313 313 314 314 315 315 313 313 312 312 312 312 313 314 316 317 318 315
303 302 300 301 303 304 305 308 307 308 308 308 308 307 306 306 307 308 306 306 307 308 309 307 312 314 313 312 313 315 313 313 314 314 313 311 312 311 314 314 316 316 315 317 318
301 301 301 301 302 303 302 306 306 305 306 306 306 305 305 306 306 306 305 305 306 308 308 307 308 311 313 313 313 314 313 312 311 311 313 314 313 314 315 314 312 312 312 315 315
Wind_Speed
19 19 19 19 20 20 19 19 18 16 15 15 14 16 19 20 24 13 6 7 2 5 8 10 7 7 3 3 3 3 2 5 5 4 3 4 6 2 4 3 6 7 5 8 8
21 21 20 20 20 19 19 19 18 17 15 14 14 16 19 20 17 10 5 8 4 4 5 3 1 2 2 4 3 4 4 8 4 3 6 9 4 9 7 14 6 10 9 11 10
22 22 22 23 22 22 21 19 18 16 15 14 14 16 17 13 4 4 3 5 4 6 4 1 4 1 2 2 3 3 5 2 5 5 6 11 10 10 8 15 5 11 10 9 4
23 23 23 24 24 23 22 20 18 16 14 13 15 15 11 3 3 3 3 4 6 5 3 0 0 1 3 4 3 4 4 3 2 7 9 13 11 14 17 20 7 8 10 7 7
23 23 24 25 25 24 23 21 20 16 11 12 12 10 3 2 7 3 4 6 6 3 4 0 3 1 1 3 5 3 3 6 7 6 7 11 14 15 24 17 12 9 9 8 9
26 26 27 26 25 24 23 22 18 14 9 8 9 6 1 2 3 5 6 5 7 6 3 4 4 4 3 1 1 3 3 6 4 6 5 7 12 5 32 4 9 8 9 9 9
26 27 29 27 27 26 24 21 14 10 7 7 5 1 1 9 1 3 7 6 8 12 3 5 5 2 3 5 1 2 5 6 5 4 5 7 12 21 18 11 9 12 7 8 9
29 30 33 29 27 26 22 17 11 7 6 3 1 2 6 3 8 5 9 11 5 2 3 3 2 3 3 1 7 4 4 4 5 5 6 6 16 10 6 8 15 11 8 8 9
30 31 34 29 28 24 22 19 8 3 3 3 2 2 7 7 3 7 9 5 6 6 7 5 3 2 4 3 4 6 1 1 6 6 5 4 4 7 12 6 9 13 13 7 6
29 31 33 30 24 20 21 6 7 8 8 3 2 2 5 3 5 5 2 7 4 3 5 5 4 3 4 4 2 4 2 3 6 6 7 12 15 7 7 8 9 7 12 17 12
29 31 31 27 19 16 18 2 5 3 3 5 3 3 5 10 7 3 2 1 2 6 3 3 4 2 5 7 6 2 3 5 6 6 7 11 18 14 7 5 7 8 10 9 16
32 31 30 23 13 10 6 3 2 5 6 7 7 7 14 4 4 7 1 2 2 1 2 6 2 5 4 4 4 3 2 4 6 6 10 9 23 18 12 6 7 7 8 10 9
32 31 27 18 6 4 4 8 10 6 2 7 4 4 6 10 6 6 6 3 2 1 1 3 6 6 3 4 5 2 3 4 7 7 8 8 22 9 4 4 5 6 6 6 8
34 29 23 14 3 6 2 16 9 2 3 3 2 5 3 3 4 8 7 6 2 6 3 4 4 1 6 4 3 3 4 5 9 6 3 3 12 6 3 8 6 7 8 10 11
32 25 15 3 3 1 8 17 7 1 4 3 1 2 2 3 2 3 6 3 8 6 5 9 4 5 3 4 5 7 6 6 6 6 3 4 5 3 7 7 9 8 8 7 7
26 15 8 1 2 6 15 15 2 4 3 3 2 4 3 3 6 4 4 3 1 2 3 7 3 4 6 5 5 3 3 4 3 2 2 9 7 17 4 4 4 4 5 6 10
16 6 3 2 2 11 16 3 4 4 5 4 3 6 3 4 6 4 3 6 0 2 3 4 2 1 2 1 5 6 5 4 4 2 5 2 3 15 12 10 5 3 8 9 9
10 5 1 3 7 13 7 4 6 2 2 0 3 5 3 7 4 6 3 3 5 3 1 1 5 0 2 3 5 5 7 4 5 4 10 10 6 7 4 5 4 5 9 10 11
6 4 3 4 8 9 5 5 3 2 3 2 5 2 3 5 3 5 3 3 2 2 2 1 5 3 8 2 4 4 4 4 2 2 1 5 8 9 10 7 5 8 8 10 14
6 7 4 7 5 4 4 1 2 3 6 2 1 1 2 2 2 5 3 3 5 4 4 3 6 8 3 1 6 6 3 3 2 3 5 5 6 8 8 10 7 12 11 13 17
5 3 5 7 5 5 3 4 4 6 7 3 5 4 4 2 2 3 5 1 5 4 3 2 4 4 3 4 5 3 2 1 3 3 3 4 5 6 8 8 12 10 9 12 19
6 2 10 9 4 1 0 3 5 4 5 4 4 6 5 3 3 4 6 5 2 2 2 3 3 4 8 13 7 6 5 4 3 5 4 3 12 7 8 9 10 9 10 13 18
2 3 6 3 2 3 5 5 3 2 3 5 4 4 4 3 3 4 3 3 5 2 1 3 1 4 6 3 4 2 3 4 2 2 8 6 10 5 7 11 11 8 8 12 23
2 4 4 4 1 3 4 4 3 4 2 1 3 3 4 3 4 5 3 3 3 2 10 5 6 8 9 9 4 12 15 11 7 5 8 12 23 21 18 13 13 7 7 12 21
3 1 2 4 3 3 2 3 4 3 4 4 2 2 3 4 4 7 6 4 8 9 6 8 6 6 9 14 16 20 21 20 18 17 13 20 21 21 12 11 12 6 7 12 23
2 3 3 3 3 4 2 2 2 2 3 5 2 7 6 7 9 13 10 5 7 5 3 3 3 3 12 17 20 19 18 18 19 20 19 17 19 9 5 5 5 9 11 12 15
5 3 3 3 3 1 3 1 4 7 6 5 3 4 6 10 7 11 12 12 10 7 6 4 2 5 9 3 10 10 7 6 5 9 9 9 11 3 6 8 7 13 13 8 13
Wind_Direction
345 342 340 338 335 333 332 331 330 328 327 327 328 331 333 324 319 311 237 230 188 224 270 294 288 261 238 244 237 136 131 226 236 265 146 312 1 226 295 286 316 329 4 334 113
345 343 341 336 332 329 328 327 326 326 325 325 326 329 330 327 321 273 254 196 220 254 273 300 295 25 192 223 208 180 170 224 242 253 325 292 317 302 331 321 314 325 342 39 77
344 342 339 336 332 328 327 325 324 323 322 325 327 328 329 324 303 263 188 152 203 260 266 295 311 292 203 221 220 194 232 219 288 319 328 301 306 307 313 291 330 308 314 338 51
342 339 338 336 331 327 324 321 320 318 321 327 329 329 337 340 144 273 177 149 201 231 310 89 218 172 200 223 256 257 235 273 294 312 306 286 309 286 282 272 296 307 295 300 310
348 342 337 333 328 325 322 319 316 315 322 330 338 338 7 316 253 214 177 179 217 242 241 204 60 39 194 299 335 219 341 349 333 311 285 288 287 281 275 278 285 273 290 290 281
351 346 340 334 329 326 322 316 312 311 315 328 334 342 344 290 242 228 199 223 236 225 244 186 178 229 134 277 158 305 278 291 292 265 243 259 282 305 274 9 297 289 275 272 250
342 347 342 334 332 326 321 316 317 310 303 320 328 12 314 235 126 252 244 277 292 246 239 213 188 88 148 323 219 285 332 338 220 233 252 223 260 248 278 310 284 294 288 283 259
346 347 345 336 334 329 327 332 322 301 285 306 81 173 250 321 304 278 234 267 248 276 251 255 233 133 151 258 1 7 45 20 284 315 248 173 260 288 310 332 311 332 312 300 277
345 345 344 339 338 339 340 331 309 279 231 170 146 174 275 316 254 194 204 246 296 291 301 286 92 141 35 74 5 12 60 281 304 288 270 211 298 316 320 331 315 313 311 316 323
345 345 343 341 342 343 346 23 54 102 110 99 264 334 283 323 261 233 226 263 251 320 2 48 52 69 34 64 278 284 332 267 269 286 300 292 286 257 268 284 285 301 311 316 303
343 344 342 340 342 344 353 28 20 6 194 223 209 252 277 322 303 245 304 234 89 49 17 1 70 219 235 206 237 261 274 263 275 289 324 300 301 305 277 256 280 288 290 292 302
342 342 339 338 341 343 12 57 269 262 312 245 238 251 265 266 310 288 184 178 96 221 16 15 298 239 273 275 189 174 187 279 270 342 311 301 290 294 291 258 237 256 281 291 300
340 341 338 334 341 12 23 10 331 296 55 300 206 195 227 156 226 258 155 182 198 224 128 155 253 323 324 315 355 355 265 259 277 295 254 279 279 265 277 279 272 270 269 290 284
341 339 340 343 89 352 332 346 346 263 61 275 262 272 170 161 260 221 209 162 222 209 209 229 264 301 311 269 116 312 254 285 307 336 297 44 289 187 219 260 279 288 269 266 278
342 341 340 358 346 9 321 338 333 99 71 177 162 251 74 179 306 279 179 112 214 205 122 237 210 281 263 227 176 236 249 265 270 270 300 207 264 157 315 283 261 273 298 330 328
345 343 339 121 280 337 334 330 118 49 45 20 51 344 13 247 253 253 179 79 114 206 246 252 237 191 209 221 205 290 315 316 329 76 259 217 196 284 222 260 320 282 307 308 307
356 1 338 239 311 331 330 49 45 87 327 14 325 326 4 305 357 343 138 39 303 321 317 327 247 346 103 323 351 54 51 322 327 332 229 299 304 262 298 296 237 260 278 279 271
6 38 39 261 315 322 344 55 71 60 3 338 296 320 110 7 2 360 48 138 30 63 40 276 317 180 109 181 221 242 169 168 262 257 280 293 236 261 237 214 229 239 263 275 287
16 353 355 2 317 330 64 54 176 320 255 276 326 37 352 335 4 8 1 137 148 93 142 270 271 300 298 303 127 261 220 208 209 280 357 235 270 299 273 247 292 293 296 299 306
357 343 314 347 311 16 75 251 262 331 295 174 130 255 285 272 356 11 280 173 158 181 154 217 284 241 261 22 272 175 190 274 5 290 266 274 267 246 276 280 308 298 299 311 312
357 33 0 340 317 47 111 246 290 323 329 208 212 246 261 258 217 244 248 255 178 185 178 165 182 284 21 218 206 307 303 189 160 179 246 282 247 224 266 270 268 273 297 303 314
355 14 348 351 46 22 101 292 292 293 341 296 199 202 196 235 258 238 234 206 126 134 199 200 162 272 247 273 236 226 236 180 139 264 241 258 275 251 241 253 272 271 285 317 329
2 279 355 8 88 328 316 297 255 299 356 13 317 346 359 234 268 227 242 150 109 87 175 187 244 305 312 358 2 122 188 198 189 287 233 254 266 234 261 285 267 254 275 321 338
42 355 329 32 28 89 353 277 299 318 178 311 275 75 12 310 251 278 264 284 313 274 281 266 192 220 248 261 233 282 270 252 217 242 255 242 273 287 288 281 283 245 269 309 332
34 325 178 304 335 345 249 272 290 338 341 335 300 166 199 267 298 257 262 297 289 273 283 164 218 206 243 264 274 271 273 272 256 247 247 270 269 279 285 293 301 283 289 318 321
60 30 356 288 299 313 246 219 272 344 259 268 259 316 258 223 213 270 275 237 239 288 267 177 262 255 280 274 267 278 274 263 255 256 260 262 263 257 284 303 309 300 313 306 306
9 24 105 268 299 335 244 153 304 328 266 218 218 281 263 259 251 265 245 244 238 211 204 179 193 297 278 307 315 280 246 248 241 232 236 252 262 279 296 297 322 313 307 316 334